Regional Weather Roundup
Issued by NWS

Home | Current Version | Previous Version | Graphics & Text | Print | Product List | Glossary Off
Versions: 1 2 3 4 5 6 7 8 9 10 11 12 13 14 15 16 17 18 19 20 21 22 23 24 25 26 27 28 29 30 31 32 33 34 35 36 37 38 39 40 41 42 43 44 45 46 47 48 49 50

000
ASUS44 KMEG 041310
RWRTN
TENNESSEE HOURLY STATE WEATHER ROUNDUP
NATIONAL WEATHER SERVICE MEMPHIS TN
800 AM CDT WED MAY 04 2016

TNZ002-004-019-021-049-052-054-088>092-041400-
WEST TENNESSEE

CITY           SKY/WX    TMP DP  RH WIND       PRES   REMARKS
MEMPHIS INTL   MOSUNNY   58  51  78 W7        29.90S
NWS MEMPHIS      N/A     55 N/A N/A MISG        N/A
JACKSON        MOSUNNY   56  49  77 SW8       29.88S
DYERSBURG      PTSUNNY   55  48  76 SW7       29.85F
UNION CITY     MOSUNNY   55  52  88 SW7       29.82F
LEXINGTON      SUNNY     54  52  94 SW5       29.86S
$$

TNZ008-025-027-028-033-062-065-066-041400-
NORTH MIDDLE TENNESSEE

CITY           SKY/WX    TMP DP  RH WIND       PRES   REMARKS
NASHVILLE      SUNNY     57  48  72 SW3       29.85S
CLARKSVILLE    SUNNY     54  48  80 SW9       29.82F
SMYRNA         SUNNY     56  49  77 W9        29.86F
COOKEVILLE     SUNNY     54  50  87 S5        29.84S
CROSSVILLE     SUNNY     51  45  79 W8        29.85S
$$

TNZ061-075-076-078-094-096-097-041400-
SOUTH MIDDLE TENNESSEE

CITY           SKY/WX    TMP DP  RH WIND       PRES   REMARKS
FAYETTEVILLE   SUNNY     55  50  82 W6        29.88S
TULLAHOMA      SUNNY     54  52  94 W6        29.87S
WINCHESTER     SUNNY     54  48  82 CALM      29.87F
MCMINNVILLE    SUNNY     54  52  94 SE6       29.86S
COLUMBIA       SUNNY    N/A N/A N/A SW6       29.85S
SHELBYVILLE    SUNNY     55  52  88 CALM      29.87F
$$

TNZ017-018-042-046-047-041400-
NORTHEAST TENNESSEE

CITY           SKY/WX    TMP DP  RH WIND       PRES   REMARKS
TRI CITIES     MOSUNNY   56  46  69 W9        29.79F
$$

TNZ012-013-036-069-073-074-041400-
CENTRAL EAST TENNESSEE

CITY           SKY/WX    TMP DP  RH WIND       PRES   REMARKS
KNOXVILLE      MOSUNNY   55  46  71 SW6       29.83F
OAK RIDGE      SUNNY     57  45  64 SW5       29.84F
GATLINBURG     SUNNY     55  45  67 SW8       29.83S
MORRISTOWN     CLOUDY    54  46  76 W9        29.81S
$$

TNZ083-085-099-041400-
SOUTHEAST TENNESSEE

CITY           SKY/WX    TMP DP  RH WIND       PRES   REMARKS
CHATTANOOGA    MOSUNNY   59  47  64 VRB5      29.86S
$$

SKY/WX REPORTED AS FAIR MEANS FEW OR NO CLOUDS BELOW
12 THOUSAND FEET.




USA.gov is the U.S. government's official web portal to all federal, state and local government web resources and services.